BEIDOU-3 M18 (C37)

Last updated on Jan. 22, 2021, 6:27 a.m. UTC

1 43707U 18093B   21021.88184993  .00000054  00000-0  00000+0 0  9996
2 43707  54.5442 249.4697 0008081 308.1080   5.4802  1.86232054 14796
UTC
Height (km)
Latitude
Longitude
Inclination
Orbital Period
UTC large
Height (km)
Speed (km/s)
/
Latitude / Longitude
Inclination (degrees)
Orbital Period (minutes)
Azimuth
Elevation
Range (km)
Doppler Factor
iOS Compass Heading
iOS Angle

Next 30 passes for location: Hong Kong

Rise time Rise Azimuth (degrees) Set time Set Azimuth (degrees) Duration Max altitude (degrees)

No matching passes for this satellites